Location: Armstrong
(40.9123°N, 82.0110°W)
Time: 08:44:23
(UTC+00:00)

FengYun 1-2 T - Pass Details

Date: 29 October 2020
Orbit: 846 x 882 km, 98.7° (Epoch: 29 November)

Event Time Altitude Azimuth Distance (km) Brightness Sun altitude
Rises 22:55:44 0° 155° (SSE) 3,467 7.3 -6.1°
Reaches altitude 10° 22:58:09 10° 152° (SSE) 2,531 6.5 -6.5°
Maximum altitude 23:03:43 64° 73° (ENE) 970 4.3 -7.5°
Drops below altitude 10° 23:09:17 10° 353° (N) 2,533 6.7 -8.6°
Sets 23:11:41 0° 350° (N) 3,470 7.4 -9.0°
